Regional Weather Roundup
Issued by NWS

Home | Current Version | Previous Version | Graphics & Text | Print | Product List | Glossary On
Versions: 1 2 3 4 5 6 7 8 9 10 11 12 13 14 15 16 17 18 19 20 21 22 23 24 25 26 27 28 29 30 31 32 33 34 35 36 37 38 39 40 41 42 43 44 45 46 47 48 49 50
000
ASUS43 KMKX 262211
RWRWI

WISCONSIN REGIONAL WEATHER ROUNDUP
NATIONAL WEATHER SERVICE MILWAUKEE/SULLIVAN WI
500 PM CDT WED APR 26 2017

NOTE: "FAIR" INDICATES FEW OR NO CLOUDS BELOW 12,000 FEET WITH NO
SIGNIFICANT WEATHER AND/OR OBSTRUCTIONS TO VISIBILITY.

WIZ001-002-006>008-014>016-023>028-262300-
NORTHWEST WISCONSIN

CITY           SKY/WX    TMP DP  RH WIND       PRES   REMARKS
SUPERIOR ARPT  CLOUDY    35  32  90 NE5       29.60R WCI  31
ASHLAND        LGT SNOW  33  31  92 N15G22    29.55R VSB 1   WCI  23
HAYWARD        LGT SNOW  35  32  88 N10       29.51F FOG     WCI  27
SIREN          DRIZZLE   36  33  90 N13G18    29.54F WCI  27
CUMBERLAND     CLOUDY    36  32  87 N14G21    29.47F WCI  27
RICE LAKE      CLOUDY    38  34  88 N8        29.50F WCI  32
CHETEK         CLOUDY    38  36  92 N8        29.48S WCI  32
LADYSMITH      CLOUDY    38  35  89 N13       29.48S WCI  30
EAU CLAIRE     CLOUDY    41  36  82 NW7       29.49R
MENOMONIE      CLOUDY    40  36  84 NW8       29.50R WCI  35
NEW RICHMOND   CLOUDY    38  35  89 N15       29.51F WCI  30
OSCEOLA        CLOUDY    40  34  80 N12G18    29.55F WCI  32
$$

WIZ003>005-009-010-017-018-262300-
NORTH CENTRAL WISCONSIN

CITY           SKY/WX    TMP DP  RH WIND       PRES   REMARKS
MANITOWISH WTR CLOUDY    34  34 100 N9        29.43S FOG     WCI  27
ARBOR VITAE    CLOUDY    39  38  94 NW7       29.41R FOG     WCI  34
WOODRUFF       CLOUDY    39  38  94 NW7       29.41R FOG     WCI  34
RHINELANDER    CLOUDY    42  42 100 VRB5      29.41R FOG
EAGLE RIVER    CLOUDY    38  38  99 N8        29.40S FOG     WCI  32
LAND O LAKES   CLOUDY    37  37  99 N9        29.42S FOG     WCI  30
PHILLIPS       CLOUDY    35  35  99 N8        29.44S WCI  29
TOMAHAWK       CLOUDY    40  39  95 NW6       29.43R FOG
MEDFORD        CLOUDY    41  40  96 W7        29.43R
MERRILL        CLOUDY    45  45 100 NW6       29.42R FOG
$$

WIZ029-030-035-036-043>047-262300-
CENTRAL WISCONSIN

CITY           SKY/WX    TMP DP  RH WIND       PRES   REMARKS
WAUSAU         CLOUDY    51  49  92 W10       29.40R
MOSINEE        CLOUDY    48  48 100 SW14      29.43R
MARSHFIELD     CLOUDY    44  41  89 W14       29.44R
STEVENS POINT  CLOUDY    51  50  99 W10G16    29.42R FOG
WAUPACA        CLOUDY    66  57  72 SW7       29.39R
WAUTOMA        CLOUDY    60  56  86 W12       29.42R
WISC RAPIDS    CLOUDY    49  47  93 W8        29.45R
CAMP DOUGLAS   CLOUDY    48  46  93 W13       29.45R FOG
$$

WIZ011>013-019>022-031-037>040-048>050-262300-
NORTHEAST WISCONSIN

CITY           SKY/WX    TMP DP  RH WIND       PRES   REMARKS
ANTIGO         CLOUDY    56  55  95 SW14      29.39R
SHAWANO        LGT RAIN  64  59  86 W5        29.39R
OCONTO         CLOUDY    64  58  80 SW6G17    29.37S
STURGEON BAY   PTSUNNY   66  59  78 SW13      29.39S
GREEN BAY      PTSUNNY   67  61  81 S14       29.40R
MANITOWOC      CLOUDY    68  57  68 S14       29.43R
APPLETON       PTSUNNY   64  55  72 SW13      29.39R
CLINTONVILLE   CLOUDY    63  59  88 SW6       29.38S
OSHKOSH        CLOUDY    66  56  70 SW14G20   29.41R
$$

WIZ032>034-041-042-053>061-262300-
SOUTHWEST WISCONSIN

CITY           SKY/WX    TMP DP  RH WIND       PRES   REMARKS
LA CROSSE      CLOUDY    47  42  83 W10       29.49R
SPARTA         CLOUDY    45  43  95 W9        29.47F
VIROQUA        CLOUDY    45  44  97 W7        29.48R
BOSCOBEL       CLOUDY    51  46  83 SW9       29.50R
PRAIRIE DU CHI CLOUDY    49  42  79 W10       29.50R
PLATTEVILLE    CLOUDY    51  50  99 SW14      29.51R
$$

WIZ056-057-062-063-064-067-068-262300-
SOUTH CENTRAL WISCONSIN

CITY           SKY/WX    TMP DP  RH WIND       PRES   REMARKS
REEDSBURG      CLOUDY    56  55  97 SW10      29.45R
BARABOO/DELLS  CLOUDY    57  52  82 SW9       29.44R
LONE ROCK      CLOUDY    53  51  93 SW13G18   29.48R FOG
MINERAL POINT  CLOUDY    52  52 100 SW9       29.50R FOG
MADISON        CLOUDY    60  53  77 SW12G18   29.46R
MIDDLETON      CLOUDY    59  53  81 SW10G17   29.48R
WATERTOWN      CLOUDY    63  57  81 SW16      29.46R
MONROE         CLOUDY    54  52  94 SW14      29.49S
JANESVILLE     CLOUDY    61  57  88 SW14G22   29.48S
$$

WIZ051-052-058>065-066-070>072-262300-
SOUTHEAST WISCONSIN

CITY           SKY/WX    TMP DP  RH WIND       PRES   REMARKS
MILWAUKEE      CLOUDY    73  56  54 SW20G28   29.46R
WAUKESHA       PTSUNNY   66  54  63 SW15G25   29.47R
MILWAUKEE/TIMM PTSUNNY   70  52  52 SW15G25   29.46R
RACINE         CLOUDY    71  55  56 SW14G21   29.47S
KENOSHA        CLOUDY    71  56  58 SW13      29.47R
FOND DU LAC    CLOUDY    66  55  67 SW10G21   29.42R
SHEBOYGAN      MOSUNNY   68  61  78 SW15      29.43R
WEST BEND      CLOUDY    66  57  72 SW14G22   29.45R
JUNEAU         CLOUDY    64  56  77 SW13      29.46S
$$

LSZ147-162-262300-
LAKE SUPERIOR

STATION/POSITION TIME  TEMP    WIND        PRES    WAVE
                       AIR SEA DIR/SP/G            HT/PER
                 (UTC) (F)     (DEG/KT/KT) (MB)    (FT/S)
DEVILS ISLAND    2200   32      30/ 22/ 25 1002.2R
PORT WING        2140   34      20/ 19/ 23 1002.0R
SAXON HARBOR     2130   35      50/ 19/ 24  999.7S
$$

LMZ867-665-643>646-262300-
LAKE MICHIGAN

STATION/POSITION TIME  TEMP    WIND        PRES    WAVE
                       AIR SEA DIR/SP/G            HT/PER
                 (UTC) (F)     (DEG/KT/KT) (MB)    (FT/S)
CHAMBERS ISLAND  2140   59     180/  5/ 11  995.3R
N MID LAKE BUOY  2150   41 38  190/  8/  8  996.8S   2/ 4
NORTHPORT PIER   2200   50     150/  8/ 16  995.6
KEWAUNEE LAKESHO 2148   48     170/ 12/ 15  995.9R
SHEBOYGAN LAKESH 2200   56     180/ 16/ 17  996.5R
PORT WASHINGTON  2130   58     160/  5/ 10  998.0R
MILWAUKEE LAKESH 2150   70     230/ 18/ 19   N/A
S MID LAKE BUOY  2150   50 42  170/  8/ 10  998.7R   1/ 4
KENOSHA   LAKESH 2200   72     240/  9/ 17  998.0
$$

TC  - TEMPERATURE IN CELSIUS
VSB - VISIBILITY IN STATUTE MILES
WCI - WIND CHILL INDEX
HX  - HEAT INDEX





USA.gov is the U.S. government's official web portal to all federal, state and local government web resources and services.